Погода в Гагарине

Погода в Гагарине : погода сейчас, прогноз погоды и архив. Всё, что Вы хотите узнать о погоде в Гагарине!

Хотите узнать прогноз погоды в Гагарине? Тогда Вам сюда: Погода в Гагарине

Поиск расширенной информации на нашем сайте:

Другие новости

Новости СМИ2

Главная страница сайта

Новости сайта

03.07.2017

Напоминаем, что на нашем специализированном сайте Метеоцентр.Азия вы можете получить высокодетализированные автоматические прогнозы погоды по пунктам России, СНГ и мира в авиационном формате (включающие направление и скорость ветра, видимость, явления погоды, количество и форму облачности, нижнюю и верхнюю границу облачности).

Рекомендуем: Не работает компьютер мастер компьютерная помощь.

Погода в Гагарине - сегодня

Время (UTC), дата Ветер
(°,м/с) 
Видим.   Явления Облачность Т
(°С)
Тd
(°С)
f(%) Тe
(°С)
Pmin
(гПа)
dP
(гПа)
Po
(мм)
O2
(г/м3)
Тmin Tmax R s Состояние
почвы
06 19.04.18 330 (СЗ) 5000 м  слаб. дождь  10/10 360 м 
[Frnb|Ns]
+6.4 +5.7 95 +7  1008.1  0.4  738  290  +5.3      мокрая 
09 19.04.18 360 (С) 12000 м  {дождь}  10/0 средняя 
[Ac As]
+8.6 +4 73 +9  1008.7  0.8  739  288           
15 19.04.18 350 (С) 12000 м    10/0 верхняя 
[Cs]
+13.5 +2.4 47 +14  1009.4  0.9  740  284         
21 19.04.18 340 (С) 30000 м    ясно 
+8.1 -0.7 54 +9  1013.8  1.6  743  291           
00 20.04.18 тихо ()   20000 м    ясно 
+4.1 -1.2 68 +4  1015.2  1.1  744  295           
09 20.04.18 020 (С) 12000 м    8/4 600 м верхняя 
[Cu hum|Ci fib]
+15.1 -4.7 25 +15  1016.7  0.1  745  285           
12 20.04.18 340 (С) 12000 м    6/4 600 м верхняя 
[Cu hum|Ci fib]
+15.4 -4.1 26 +16  1015.8  -0.8  745  284           
15 20.04.18 320 (СЗ) 12000 м    9/5 1000 м верхняя 
[Cu med, cong|Ci fib]
+16 -2.9 27 +17  1014.1  -1.6  743  283           
21 20.04.18 220 (ЮЗ) 30000 м    10/0 средняя 
[Ac trans]
+9.9 +0.3 51 +10  1011.5  -2.2  741  288           
06 21.04.18 240 (ЮЗ) 12000 м    8/0 средняя, верхняя 
[Ac trans|Ci fib]
+12.9 +5.8 62 +12  1000.5  -4  733  281  +8.2        влажная 
18 21.04.18 310 (СЗ) 6-18{20}  30000 м  {гроза, ливн. осадки}  10/10 960 м кучево-дожд. 
[Cb cap]
+8.5 +0.2 56 +7  995.3  5.5  729  285    +20.6     
06 22.04.18 340 (С) 3{15}  12000 м    6/6 800 м 
[Sc]
+6.4 -1.1 59 +5  1000.4  0.9  733  289  +3        влажная 
09 22.04.18 320 (СЗ) 12000 м    10/10 750 м 
[Sc]
+7.6 -1.9 51 +8  1001.6  1.3  734  288           
21 22.04.18 330 (СЗ) 20000 м    10/10 1080 м 
[Sc]
+1.3 -4.6 65 +2  1011.8  1.6  741  298           
00 23.04.18 320 (СЗ) 15000 м    10/0 средняя 
[Ac und]
-0.2 -4.4 73 1013.3  1.3  742  300           
03 23.04.18 330 (СЗ) 12000 м    ясно 
-2.2 -5.9 76 -2  1014.9  1.4  743  302  -2.6         
06 23.04.18 340 (С) 12000 м    1/1 600 м 
[Cu hum]
+3.3 -9.1 40 +3  1015.6  1.2  744  297  -2.6        влажная 
09 23.04.18 330 (СЗ) 12000 м    3/0 верхняя 
[Ci]
+5.9 -10.9 29 +5  1015.3  -0.1  744  294           
12 23.04.18 310 (СЗ) 12000 м    6/0 верхняя 
[Ci]
+8.1 -11.5 24 +7  1014.3  -0.8  743  292           
15 23.04.18 350 (С) 12000 м    4/0 верхняя 
[Ci sp]
+8.9 -11.4 22 +10  1013.5  -0.8  743  291           
21 23.04.18 тихо ()   17000 м    ясно 
-2.1 -5.2 79 -2  1014.8  0.1  743  302           
00 24.04.18 тихо ()   11000 м    ясно 
-3.9 -5.8 87 -4  1015.4  0.4  743  304           
06 24.04.18 190 (Ю) 12000 м    10/0 верхняя 
[Ci fib]
+6.1 -6.4 40 +6  1013.6  -0.2  743  293  -4.8        влажная 
09 24.04.18 220 (ЮЗ) 12000 м    10/0 средняя, верхняя 
[As op|Ci fib]
+10.9 -6.7 28 +12  1012.2  -1  742  288           
12 24.04.18 200 (Ю) 12000 м    10/0 средняя 
[Ac As]
+12.7 -5.2 28 +13  1010.3  -1.7  740  286           
Время (UTC), дата Ветер
(°,м/с) 
Видим.   Явления Облачность Т
(°С)
Тd
(°С)
f(%) Тe
(°С)
Pmin
(гПа)
dP
(гПа)
Po
(мм)
O2
(г/м3)
Тmin Tmax R s Состояние
почвы

Для получения пояснительной информации подведите курсор к названию столбца.

ПОГОДА в Гагарине - архив

Всё, что Вы хотите узнать о погоде в Гагарине - удобно и подробно!

Выберите нужную дату (начиная с 1 января 2015* года) и нажмите кнопку "Найти".
Будут отображены архивные сводки погоды по пункту Гагарин, начиная с указанной даты.


Отображать данные в формате CSV (для использования в таблицах Excel)


Внимание! Наш архив погоды предназначен исключительно для личного некоммерческого использования в познавательных целях. Если Вам необходимы официальные справки о состоянии погоды (для производственных, юридических, коммерческих и т.п. целей), обращайтесь в органы Росгидромета.

*Примечание: данная дата относится к архиву по метеостанциям СССР (Россия, СНГ, Балтия).
Архив по метеостанциям Зарубежной Европы и Азии (кроме Китая) хранится 10 дней, по другим регионам земного шара (Китай, Африка, Америка, Австралия, Океания) - 1 день.

Гагарин - район местоположения метеостанции


Название, широта, долгота, высота метеостанции:
Гагарин 55.5°ш. 35°д. 194 м над ур. моря [Российская Федерация]

Дополнительная информация

В oтличие oт бoльшинства пoгoдных сайтoв мы публикуем пoдрoбную метеoинфoрмацию в детальнoм прoфессиoнальнoм фoрмате.

Характеристики температуры и влажнoсти вoздуха измеряются на высoте 2 м в тени вдали oт зданий и деревьев.
Скoрoсть ветра измеряется на высoте 10 м (на урoвне рoста челoвека скoрoсть ветра ниже в 1.5-2 раза). Если метеoстанция нахoдится в гoрoде или в лесу, тo скoрoсть ветра занижена на 2-4 м/с пo сравнению с oткрытым местoм. Скoрoсть ветра над акватoриями крупных рек и oзёр, а также на вершинах хoлмoв на 2-5 м/с выше, чем в oбычных услoвиях.
Атмoсфернoе давление в разных тoчках местнoсти мoжет значительнo oтличаться oт давления на метеoстанции, в зависимoсти oт услoвий рельефа (при пoдъёме на 10 м давление пoнижается примернo на 1 мм рт.ст.).